Vertical_Velocity
-0 -1 -0 -0 -1 -1 -3 -1 -1 1 -1 -3 7 -2 2 9 -1 1 3 3 1 -1
1 0 -1 -1 -2 -4 -2 -2 0 -0 3 7 1 -1 -0 -1 -5 -1 2 2 3 1
1 1 1 0 -0 -1 -0 -0 1 -0 1 -1 1 -1 -1 1 2 0 -0 0 -2 2
-2 -1 -2 -2 -4 -5 -4 -2 -2 -1 -3 -1 -1 0 -0 -1 0 1 0 1 -2 -1
1 -0 -1 -1 1 1 0 1 0 -1 0 -2 0 1 1 2 0 -1 -0 -1 -2 -1
-1 -2 -2 -1 1 1 0 -2 -2 0 1 2 2 1 -1 -1 -1 -0 -2 -1 -1 1
-1 -2 -2 -3 -3 -3 -1 -1 -1 -1 -1 -1 -2 -3 -2 -1 -2 -3 -2 -1 -2 -2
-3 -2 -2 -2 -2 -2 -2 -0 -1 -3 -3 -2 -1 0 0 -0 -0 0 0 -0 -1 -0
-1 -1 -2 -2 -1 -0 0 0 -1 -3 -1 -1 -1 -1 -1 -2 -1 -1 -2 -2 -2 -2
-1 0 0 0 0 -2 -2 -2 -1 -1 -1 0 0 -1 -1 -1 -2 -3 -2 -3 -3 0
-1 -2 -1 -1 -1 -2 -2 -2 -2 -2 -1 -2 -2 -2 -2 -0 0 -0 -2 2 2 -2
-3 -3 -3 -2 -3 -2 -2 -2 -3 -2 -3 -2 -2 -2 -1 -2 -3 -4 -6 -5 -4 -2
-1 -1 -1 -2 -1 -0 -0 -0 -0 -2 -2 -2 -2 -1 -2 -2 -1 -4 -2 -3 -3 -4
-2 -2 -1 0 -0 -3 -3 -3 -2 -2 -3 -2 -2 -2 -2 -2 -1 0 -0 -3 -2 -3
Height
5933 5933 5933 5933 5932 5931 5930 5929 5929 5927 5926 5923 5921 5920 5918 5917 5912 5908 5906 5904 5902 5899
5934 5933 5933 5933 5932 5931 5930 5929 5927 5925 5922 5920 5918 5916 5913 5911 5908 5904 5901 5898 5896 5894
5935 5934 5933 5932 5930 5928 5928 5926 5923 5921 5919 5916 5914 5911 5908 5906 5903 5900 5897 5894 5891 5889
5935 5934 5932 5931 5929 5927 5925 5923 5921 5919 5916 5914 5911 5909 5905 5901 5898 5895 5892 5889 5886 5883
5935 5933 5931 5929 5927 5925 5923 5921 5919 5917 5914 5911 5908 5905 5902 5899 5895 5892 5889 5886 5882 5879
5935 5933 5930 5928 5925 5923 5921 5918 5916 5914 5912 5909 5905 5901 5898 5895 5892 5889 5886 5883 5880 5877
5934 5931 5929 5926 5923 5920 5918 5916 5913 5911 5908 5905 5901 5898 5895 5893 5890 5886 5883 5879 5875 5872
5932 5930 5927 5924 5921 5918 5916 5914 5912 5910 5906 5903 5899 5895 5892 5889 5885 5882 5878 5875 5872 5869
5930 5928 5925 5922 5920 5917 5915 5912 5909 5906 5902 5898 5894 5890 5887 5884 5881 5878 5874 5871 5868 5865
5928 5926 5924 5921 5919 5916 5912 5909 5905 5901 5897 5893 5890 5886 5883 5879 5875 5872 5869 5866 5863 5859
5928 5925 5922 5919 5916 5913 5909 5904 5900 5896 5892 5888 5884 5881 5878 5875 5872 5869 5865 5861 5856 5851
5926 5923 5920 5917 5913 5908 5904 5899 5894 5889 5886 5882 5879 5876 5873 5870 5867 5864 5860 5855 5850 5845
5923 5920 5916 5912 5908 5903 5898 5894 5889 5884 5880 5876 5873 5870 5868 5865 5860 5856 5852 5848 5842 5836
5920 5917 5913 5909 5904 5899 5894 5889 5884 5879 5875 5871 5868 5865 5862 5859 5855 5851 5846 5841 5834 5827